EHI
0 0 0 0 0 0 0 0 0 0 0 0 0 0 0 0 0 0 0 0 0 0 0 0 0 0 0 0 0 0 0 0 0 0 0 0 0 0
0 0 0 0 0 0 0 0 0 0 0 0 0 0 0 0 0 0 0 0 0 0 0 0 0 0 0 0 0 0 0 0 0 0 0 0 0 0
0 0 0 0 0 0 0 0 0 0 0 0 0 0 0 0 0 0 0 0 0 0 0 0 0 0 0 0 0 0 0 0 0 0 0 0 0 0
0 0 0 0 0 0 0 0 0 0 0 0 0 0 0 0 0 0 0 0 0 0 0 0 0 0 0 0 0 0 0 0 0 0 0 0 0 0
0 0 0 0 0 0 0 0 0 0 0 0 0 0 0 0 0 0 0 0 0 0 0 0 0 0 0 0 0 0 0 0 0 0 0 0 0 0
0 0 0 0 0 0 0 0 0 0 0 0 0 0 0 0 0 0 0 0 0 0 0 0 0 0 0 0 0 0 0 0 0 0 0 0 0 0
0 0 0 0 0 0 0 0 0 0 0 0 0 0 0 0 0 0 0 0 0 0 0 0 0 0 0 0 0 0 0 0 0 0 0 0 0 0
0 0 0 0 0 0 0 0 0 0 0 0 0 0 0 0 0 0 0 0 0 0 0 0 0 0 0 0 0 0 0 0 0 0 0 0 0 0
0 0 0 0 0 0 0 0 0 0 0 0 0 0 0 0 0 0 0 0 0 0 0 0 0 0 0 0 0 0 0 0 0 0 0 0 0 0
0 0 0 0 0 0 0 0 0 0 0 0 0 0 0 0 0 0 0 0 0 0 0 0 0 0 0 0 0 0 0 0 0 0 0 0 0 0
0 0 0 0 0 0 0 0 0 0 0 0 0 0 0 0 0 0 0 0 0 0 0 0 0 0 0 0 0 0 0 0 0 0 0 0 0 0
0 0 0 0 0 0 0 0 0 0 0 0 0 0 0 0 0 0 0 0 0 0 0 0 0 0 0 0 0 0 0 0 0 0 0 0 0 0
0 0 0 0 0 0 0 0 0 0 0 0 0 0 0 0 0 0 0 0 0 0 0 0 0 0 0 0 0 0 0 0 0 0 0 0 0 0
0 0 0 0 0 0 0 0 0 0 0 0 0 0 0 0 0 0 0 0 0 0 0 0 0 0 0 0 0 0 0 0 0 0 0 0 0 0
0 0 0 0 0 0 0 0 0 0 0 0 0 0 0 0 0 0 0 0 0 0 0 0 0 0 0 0 0 0 0 0 0 0 0 0 0 0
0 0 0 0 0 0 0 0 0 0 0 0 0 0 0 0 0 0 0 0 0 0 0 0 0 0 0 0 0 0 0 0 0 0 0 0 0 0
0 0 0 0 0 0 0 0 0 0 0 0 0 0 0 0 0 0 0 0 0 0 0 0 0 0 0 0 0 0 0 0 0 0 0 0 0 0
0 0 0 0 0 0 0 0 0 0 0 0 0 0 0 0 0 0 0 0 0 0 0 0 0 0 0 0 0 0 0 0 0 0 0 0 0 0
0 0 0 0 0 0 0 0 0 0 0 0 0 0 0 0 0 0 0 0 0 0 0 0 0 0 0 0 0 0 0 0 0 0 0 0 0 0
0 0 0 0 0 0 0 0 0 0 0 0 0 0 0 0 0 0 0 0 0 0 0 0 0 0 0 0 0 0 0 0 0 0 0 0 0 0
0 0 0 0 0 0 0 0 0 0 0 0 0 0 0 0 0 0 0 0 0 0 0 0 0 0 0 0 0 0 0 0 0 0 0 0 0 0
0 0 0 0 0 0 0 0 0 0 0 0 0 0 0 0 0 0 0 0 0 0 0 0 0 0 0 0 0 0 0 0 0 0 0 0 0 0
0 0 0 0 0 0 0 0 0 0 0 0 0 0 0 0 0 0 0 0 0 0 0 0 0 0 0 0 0 0 0 0 0 0 0 0 0 0
Wind_Speed
7 7 5 4 4 4 4 4 5 5 6 6 5 5 5 5 7 6 5 7 8 7 5 5 4 3 2 1 1 1 2 3 4 5 7 7 8 9
5 6 6 4 4 4 5 4 4 5 5 4 5 4 5 4 8 5 5 8 8 8 7 6 6 5 3 2 1 1 2 2 4 5 6 7 8 10
5 6 6 5 5 4 4 4 4 4 6 3 2 2 5 6 5 4 4 4 4 8 9 8 7 6 5 3 2 1 1 2 4 5 6 7 8 9
6 6 6 5 6 5 5 6 5 5 5 4 3 3 5 6 5 5 4 4 4 8 9 8 7 7 6 4 3 2 1 1 3 4 5 6 8 9
6 6 6 6 7 5 5 6 5 4 3 4 4 3 2 3 4 3 3 3 3 5 8 9 8 7 7 6 4 3 2 1 2 3 4 6 7 8
5 6 6 7 7 7 6 6 5 5 4 4 3 3 3 3 4 4 4 4 4 3 6 6 7 7 7 6 5 4 3 2 1 2 4 5 6 7
4 4 5 7 8 7 6 6 6 6 5 5 4 3 4 4 5 4 5 3 3 3 3 3 3 2 4 5 5 4 4 3 2 2 3 4 5 6
4 4 4 6 7 9 10 9 9 8 7 6 5 7 7 6 5 5 5 4 4 4 4 3 3 3 3 3 5 6 5 4 2 2 2 3 4 5
4 4 3 4 6 5 7 8 9 12 11 8 8 8 7 7 8 7 6 5 5 5 5 4 3 3 3 4 7 7 6 5 3 2 1 2 3 4
3 4 5 5 5 5 4 5 5 6 7 7 7 7 6 7 8 7 6 4 2 2 4 4 3 3 2 2 7 8 7 6 4 3 1 1 2 3
3 4 4 5 8 7 5 5 5 5 6 7 7 7 9 11 10 6 6 5 3 3 3 3 3 2 2 1 3 6 7 7 5 3 2 0 1 3
4 4 6 8 9 8 5 5 6 5 3 3 4 5 6 9 13 9 8 6 4 4 5 5 4 4 2 1 1 1 2 4 5 3 2 1 2 2
4 4 4 10 11 11 9 6 8 6 4 4 4 3 3 4 5 5 6 6 5 4 6 6 4 4 3 2 1 1 1 1 1 1 1 1 2 3
5 4 5 11 12 12 9 9 10 7 3 4 4 5 5 5 4 4 4 3 2 4 8 7 5 5 5 3 3 2 1 1 1 1 0 1 1 2
5 10 12 13 11 8 9 11 8 4 4 5 6 6 4 4 4 4 3 4 4 3 4 4 4 4 4 4 4 3 2 2 2 2 1 1 1 1
6 8 12 11 9 8 8 6 4 4 5 5 5 3 3 4 4 4 4 4 3 2 3 3 4 6 4 3 4 3 3 3 3 2 2 1 1 1
7 5 4 4 4 4 4 4 4 4 5 4 4 4 4 5 4 4 4 4 4 5 4 3 3 3 3 4 3 3 3 2 3 3 3 2 1 1
8 4 4 4 5 5 5 5 4 4 4 4 4 5 5 6 5 5 4 5 5 5 5 5 5 3 2 0 3 4 3 3 3 3 3 3 2 1
5 4 5 5 5 5 5 5 5 5 4 4 5 5 5 5 6 6 6 5 5 5 5 5 5 5 5 3 2 5 5 4 4 3 3 3 3 2
4 5 5 6 5 5 5 5 5 4 4 4 4 5 5 6 6 7 7 7 6 5 5 5 5 6 6 5 3 2 6 5 4 4 3 2 1 1
6 6 6 6 6 6 6 5 5 5 5 4 4 5 5 6 6 7 7 10 8 6 7 7 6 8 4 4 3 2 2 5 5 4 4 3 2 2
6 6 6 6 6 6 6 5 5 5 5 4 4 4 5 5 6 8 8 8 7 6 6 5 6 6 4 4 4 4 3 3 4 6 6 5 4 5
7 7 6 6 6 5 5 5 6 5 4 4 4 4 5 5 5 6 7 7 7 7 7 6 6 4 4 4 4 4 5 5 3 3 1 3 4 4
Wind_Direction
206 206 208 206 203 202 197 191 195 226 233 216 208 204 198 191 188 183 185 196 193 186 182 165 158 156 157 157 114 40 24 14 355 347 340 335 336 334
203 207 211 208 210 205 204 208 209 218 235 206 205 186 184 191 191 185 190 193 194 185 180 177 177 176 175 169 144 79 55 9 353 345 342 342 342 339
208 212 218 211 212 209 205 208 215 212 234 225 190 176 178 186 182 183 184 186 199 195 191 188 185 181 174 167 161 143 90 2 349 344 343 341 337 335
216 216 223 216 219 216 211 216 218 213 214 220 197 192 197 190 182 187 189 190 195 202 197 191 189 187 182 180 183 174 156 354 346 340 339 339 337 336
218 218 222 216 225 224 221 222 220 215 211 210 205 192 188 171 169 186 189 193 195 204 203 196 194 195 191 192 197 193 186 214 323 331 334 336 336 337
228 225 224 222 228 225 224 223 217 211 207 208 204 191 187 171 168 184 198 200 199 195 203 198 198 202 199 196 197 198 192 202 273 318 331 336 339 339
238 235 235 239 240 234 229 221 213 215 209 213 210 196 194 182 196 186 199 187 205 191 186 194 186 190 199 200 196 196 191 202 244 299 322 336 343 341
251 254 254 246 249 251 248 237 224 217 214 214 217 216 211 202 188 184 178 176 211 193 179 197 174 192 197 197 203 200 200 209 226 263 314 335 345 347
251 254 265 262 259 248 251 247 238 234 224 217 221 222 211 198 185 189 191 190 197 172 166 189 179 201 198 208 208 206 206 209 214 221 285 332 344 348
271 256 252 254 249 249 244 244 246 243 236 228 226 224 213 195 194 192 184 165 108 143 161 177 178 196 186 204 213 209 206 203 199 201 237 302 353 358
297 278 265 252 258 261 244 240 253 258 252 242 239 232 217 202 184 160 161 165 184 191 181 167 165 166 170 200 214 211 202 196 194 197 212 202 56 37
318 307 294 288 278 268 249 235 246 252 240 239 238 231 218 206 195 186 179 178 165 185 182 168 160 153 172 196 186 182 191 196 190 193 201 180 105 79
311 307 299 297 291 284 276 255 250 254 231 218 222 216 203 201 196 188 184 180 175 184 170 161 157 159 156 160 174 170 158 154 162 189 208 178 125 109
302 299 295 298 297 293 287 268 264 260 227 215 218 215 207 205 195 179 173 163 154 167 166 159 153 160 153 154 172 159 151 160 156 159 163 167 109 106
300 299 300 298 296 290 278 275 270 246 224 224 223 223 212 191 162 143 128 114 86 89 141 155 147 147 149 156 155 154 158 176 173 161 154 140 126 97
303 296 299 298 293 280 275 274 258 238 236 234 228 213 179 171 174 165 165 157 138 115 81 105 142 145 143 145 147 160 167 169 167 166 150 144 136 148
305 297 292 291 285 275 267 260 250 239 240 231 214 204 194 189 182 169 162 160 164 161 153 123 101 95 116 142 151 166 164 168 169 158 148 151 190 202
310 295 290 286 283 279 274 271 259 244 240 227 214 209 202 195 183 173 171 173 173 168 161 153 142 121 99 334 187 165 164 164 158 156 147 154 191 211
304 290 286 283 282 280 275 271 267 255 237 221 215 211 201 194 185 182 181 178 175 168 161 157 159 156 163 186 198 189 165 154 147 153 165 167 178 191
295 292 290 288 284 279 277 278 274 263 243 228 220 213 203 194 191 187 185 182 174 165 162 168 177 178 178 170 164 173 176 153 153 156 154 139 140 170
305 299 294 290 287 282 276 274 272 265 248 231 221 213 207 199 197 191 185 184 176 172 180 186 185 163 121 110 117 131 155 175 161 154 148 139 145 158
304 301 298 292 288 283 279 272 269 265 251 237 224 216 210 203 198 191 184 181 181 177 172 153 142 145 143 158 156 145 139 140 164 166 168 166 161 178
305 302 299 297 291 285 280 273 266 260 252 240 229 220 211 202 196 191 183 179 172 164 152 147 149 154 157 157 152 146 147 148 146 151 177 196 183 158